Tracking 28794 objects as of 21-Apr-2024
HD Live streaming from Space Station
objects crossing your sky now

STARLINK-4725

Track STARLINK-4725 now!
10-day predictions
STARLINK-4725 is classified as:


NORAD ID: 53700
Int'l Code: 2022-107A
Perigee: 545.8 km
Apogee: 548.0 km
Inclination: 53.2 °
Period: 95.4 minutes
Semi major axis: 6917 km
RCS: Unknown
Launch date: September 5, 2022
Source: United States (US)
Launch site: AIR FORCE EASTERN TEST RANGE (AFETR)
Your satellite tracking list
Your tracking list is empty




NASA's NSSDC Master Catalog

Two Line Element Set (TLE):
1 53700U 22107A   24112.34648645 -.00004205  00000-0 -24636-3 0  9994
2 53700  53.2178  89.3476 0001614  93.3183 266.7993 15.08826737 91097
Source of the keplerian elements: AFSPC